[[{"header":{"parameterUnit":"m.s-1","parameterCategory":1,"la1":30.2991,"la2":30.254,"lo1":-89.0895,"lo2":-89.0444,"dy":0.0017,"dx":0.0017,"nx":28,"ny":28,"refTime":"2024-10-10T21:00:00:Z","depth":0,"parameterNumber":2,"parameterNumberName":"U-component_of_WINDS"},"data":[0,0,0,0,0,0,0,0,0,0,0,0,0,0,0,0,0,0,0,0,0,0,0,0,0,0,0,0,0,0,0,0,0,0,0,0,0,0,0,0,0,0,0,0,0,0,0,0,0,0,0,0,0,0,0,0,0,0,-0.6748,-0.6749,0,-0.6772,-0.6772,-0.6773,-0.6729,-0.6728,-0.6726,-0.6725,-0.6752,-0.6754,-0.6756,0,0,0,0,0,0,0,0,0,0,0,0,0,-0.6668,-0.6669,-0.6748,-0.6749,-0.6749,-0.6772,-0.6772,-0.6773,-0.6729,-0.6728,-0.6726,-0.6724,-0.6751,-0.6753,-0.6756,0,0,0,0,0,0,0,0,0,0,0,0,0,-0.6698,-0.667,-0.6748,-0.673,-0.6729,-0.6772,-0.6772,-0.6773,-0.673,-0.6728,-0.6725,-0.6723,-0.675,-0.6753,-0.6756,-0.6819,0,0,-0.6766,-0.6767,0,0,0,0,0,0,0,0,-0.6697,-0.6701,-0.6732,-0.6731,-0.673,-0.6745,-0.6754,-0.6789,-0.673,-0.6729,-0.6725,-0.6722,-0.6752,-0.6754,-0.6764,-0.6821,-0.6822,-0.6766,-0.6768,-0.6769,-0.677,0,0,0,0,0,0,0,-0.6695,-0.67,-0.6758,-0.6733,-0.6731,-0.6721,-0.6723,-0.676,-0.6753,-0.6729,-0.6726,-0.6729,-0.675,-0.6761,-0.6764,-0.6822,-0.6766,-0.6769,-0.6771,-0.6772,-0.6932,-0.6935,0,0,0,0,0,0,-0.6694,-0.6699,-0.6757,-0.6759,-0.6707,-0.6725,-0.6727,-0.6743,-0.6752,-0.6751,-0.6731,-0.6727,-0.6757,-0.676,-0.6765,-0.684,-0.6769,-0.6772,-0.6774,-0.693,-0.6933,-0.6935,0,0,0,0,0,0,-0.6693,-0.67,-0.6756,-0.6728,-0.6734,-0.6728,-0.6747,-0.6744,-0.6755,-0.6753,-0.6752,-0.6743,-0.6755,-0.676,-0.6806,-0.684,-0.6774,-0.6777,-0.6927,-0.6931,-0.6934,-0.6989,0,0,0,0,0,0,-0.6691,-0.67,-0.6723,-0.6729,-0.6736,-0.6797,-0.6749,-0.6746,-0.676,-0.6755,-0.6764,-0.6764,-0.6754,-0.6802,-0.6809,-0.6843,-0.6779,-0.6924,-0.6929,-0.6933,-0.6985,-0.6995,-0.7003,0,0,0,0,0,-0.6688,-0.6738,-0.6725,-0.6732,-0.6765,-0.6799,-0.6803,-0.6789,-0.6763,-0.6787,-0.6786,-0.6764,-0.6835,-0.6807,-0.6815,-0.685,-0.6922,-0.6927,-0.6933,-0.6981,-0.6993,-0.7003,0,0,0,0,0,0,-0.6738,-0.6739,-0.6724,-0.6777,-0.6788,-0.6791,-0.6821,-0.6803,-0.6822,-0.6817,-0.68,-0.6802,-0.6852,-0.6855,-0.6824,-0.6912,-0.6874,-0.6881,-0.6908,-0.6919,-0.6928,-0.6927,-0.6782,0,0,0,0,0,-0.6755,-0.6782,-0.6781,-0.6829,-0.6835,-0.6827,-0.6841,-0.683,-0.6841,-0.6845,-0.6848,-0.686,-0.6885,-0.6902,-0.6925,-0.6985,-0.6986,-0.7013,-0.7022,-0.703,-0.7036,-0.7068,-0.708,-0.6953,-0.6953,-0.6953,0,0,-0.6791,-0.6795,-0.6813,-0.6839,-0.6846,-0.6874,-0.6831,-0.6863,-0.6884,-0.685,-0.6893,-0.6896,-0.6908,-0.6961,-0.6985,-0.6966,-0.7072,-0.7036,-0.7042,-0.7045,-0.7075,-0.7087,-0.7098,-0.6957,-0.6956,-0.6955,0,0,-0.6872,-0.6877,-0.6917,-0.6925,-0.6936,-0.693,-0.694,-0.6945,-0.6945,-0.6988,-0.6963,-0.6988,-0.7032,-0.7042,-0.7053,-0.7136,-0.7117,-0.7144,-0.7193,-0.7224,-0.7234,-0.7243,-0.7273,-0.7284,-0.7151,-0.7151,-0.7151,0,-0.6915,-0.6957,-0.694,-0.6974,-0.6986,-0.6955,-0.6996,-0.7005,-0.7023,-0.7033,-0.7011,-0.7065,-0.7071,-0.7126,-0.7146,-0.7156,-0.7167,-0.7143,-0.7234,-0.7242,-0.725,-0.7279,-0.729,-0.7154,-0.7154,-0.7153,-0.7153,0,-0.701,-0.7039,-0.707,-0.7088,-0.7104,-0.7141,-0.713,-0.7148,-0.7135,-0.7132,-0.7176,-0.7183,-0.7206,-0.7218,-0.7207,-0.7272,-0.726,-0.7236,-0.7198,-0.7266,-0.7293,-0.7303,-0.7159,-0.7158,-0.7157,-0.7156,0,0,-0.7124,-0.7131,-0.7143,-0.715,-0.716,-0.7182,-0.7218,-0.724,-0.7256,-0.727,-0.73,-0.7337,-0.7315,-0.7328,-0.7317,-0.7344,-0.741,-0.7317,-0.7317,-0.7335,-0.7483,-0.7501,-0.7514,-0.7397,-0.7399,-0.74,-0.7482,0,-0.7204,-0.7264,-0.725,-0.7311,-0.7338,-0.7309,-0.734,-0.735,-0.7348,-0.7371,-0.7369,-0.7396,-0.7364,-0.7372,-0.7397,-0.7397,-0.744,-0.7391,-0.7426,-0.7427,-0.7424,-0.7528,-0.7547,-0.7623,-0.7492,-0.7494,-0.7495,0,-0.7305,-0.7322,-0.7385,-0.739,-0.7401,-0.7429,-0.7448,-0.747,-0.7481,-0.7477,-0.7491,-0.7474,-0.751,-0.7471,-0.7521,-0.7488,-0.7501,-0.7503,-0.7506,-0.7509,-0.7466,-0.7534,-0.7647,-0.7659,-0.7511,-0.751,-0.7509,0,-0.7382,-0.742,-0.7463,-0.747,-0.7477,-0.7498,-0.7502,-0.751,-0.7524,-0.7541,-0.755,-0.7572,-0.7584,-0.7601,-0.7591,-0.7563,-0.7643,-0.7603,-0.7641,-0.7642,-0.766,-0.7659,-0.7777,-0.7668,-0.7668,-0.7667,-0.7667,0,-0.7473,-0.7513,-0.7497,-0.7524,-0.7568,-0.7551,-0.7595,-0.7596,-0.7603,-0.763,-0.7606,-0.7632,-0.7616,-0.7641,-0.7633,-0.7676,-0.7681,-0.768,-0.7678,-0.7682,-0.7683,-0.7691,-0.7686,-0.7671,-0.767,-0.7669,-0.7669,0,-0.7567,-0.7558,-0.7602,-0.7605,-0.7607,-0.7639,-0.7641,-0.7666,-0.7662,-0.7696,-0.7703,-0.7697,-0.7724,-0.7715,-0.7745,-0.774,-0.7794,-0.7785,-0.7791,-0.7788,-0.7828,-0.7824,-0.7956,-0.7973,-0.7852,-0.7854,-0.7855,0,-0.7626,-0.7656,-0.7661,-0.7677,-0.7682,-0.7708,-0.7722,-0.7707,-0.7723,-0.7737,-0.776,-0.7785,-0.7804,-0.785,-0.7849,-0.7871,-0.7862,-0.7907,-0.7866,-0.787,-0.7863,-0.7862,-0.7865,-0.7916,-0.7917,-0.7918,-0.7919,0,-0.7731,-0.7725,-0.7746,-0.7766,-0.7783,-0.7798,-0.7811,-0.7825,-0.7811,-0.783,-0.7858,-0.7873,-0.7902,-0.7928,-0.7948,-0.7953,-0.7934,-0.7932,-0.7942,-0.7947,-0.795,-0.7949,-0.7813,-0.7929,-0.7928,-0.7927,-0.7927,-0.7926,-0.781,-0.7835,-0.7843,-0.7867,-0.7875,-0.7887,-0.791,-0.7909,-0.7931,-0.7954,-0.7944,-0.7975,-0.7985,-0.801,-0.8018,-0.8043,-0.8026,-0.8041,-0.8044,-0.8048,-0.8053,-0.7945,-0.8046,-0.8046,-0.8046,-0.8046,-0.8045,0,-0.7914,-0.7918,-0.794,-0.7958,-0.7978,-0.7957,-0.797,-0.7988,-0.8015,-0.8026,-0.8045,-0.8076,-0.8101,-0.8101,-0.8124,-0.8144,-0.8136,-0.8151,-0.8149,-0.8151,-0.8067,-0.8056,-0.8157,-0.8157,-0.8157,-0.8157,-0.8157,-0.8157,-0.7971,-0.8012,-0.8007,-0.8053,-0.8056,-0.8086,-0.8095,-0.8107,-0.8115,-0.8151,-0.8171,-0.817,-0.8177,-0.82,-0.8222,-0.8221,-0.8231,-0.8249,-0.8246,-0.8168,-0.8157,-0.8146,-0.8136,-0.8251,-0.8251,-0.8327,-0.8327,-0.8328]},{"header":{"parameterUnit":"m.s-1","parameterCategory":1,"la1":30.2991,"la2":30.254,"lo1":-89.0895,"lo2":-89.0444,"dy":0.0017,"dx":0.0017,"nx":28,"ny":28,"refTime":"2024-10-10T21:00:00:Z","depth":0,"parameterNumber":3,"parameterNumberName":"V-component_of_WINDS"},"data":[0,0,0,0,0,0,0,0,0,0,0,0,0,0,0,0,0,0,0,0,0,0,0,0,0,0,0,0,0,0,0,0,0,0,0,0,0,0,0,0,0,0,0,0,0,0,0,0,0,0,0,0,0,0,0,0,0,0,-3.4044,-3.4045,0,-3.4097,-3.4098,-3.4098,-3.4061,-3.4059,-3.4058,-3.4056,-3.4107,-3.411,-3.4112,0,0,0,0,0,0,0,0,0,0,0,0,0,-3.3908,-3.3911,-3.4044,-3.4045,-3.4045,-3.4097,-3.4098,-3.4098,-3.4061,-3.4059,-3.4057,-3.4055,-3.4106,-3.4109,-3.4113,0,0,0,0,0,0,0,0,0,0,0,0,0,-3.3964,-3.3911,-3.4044,-3.4033,-3.4033,-3.4097,-3.4098,-3.4099,-3.4062,-3.4059,-3.4057,-3.4054,-3.4105,-3.4109,-3.4113,-3.419,0,0,-3.4126,-3.4128,0,0,0,0,0,0,0,0,-3.3961,-3.3969,-3.4034,-3.4034,-3.4034,-3.407,-3.4068,-3.4129,-3.4062,-3.4051,-3.4056,-3.4053,-3.4096,-3.4101,-3.4116,-3.4192,-3.4194,-3.4127,-3.4129,-3.4131,-3.4133,0,0,0,0,0,0,0,-3.3957,-3.3967,-3.4065,-3.4035,-3.4035,-3.4025,-3.403,-3.408,-3.4087,-3.4051,-3.4049,-3.4056,-3.4096,-3.4112,-3.4117,-3.4195,-3.4127,-3.4131,-3.4133,-3.4135,-3.4336,-3.4339,0,0,0,0,0,0,-3.3955,-3.3964,-3.4063,-3.4067,-3.3991,-3.4029,-3.4035,-3.4061,-3.4086,-3.4088,-3.4058,-3.4054,-3.4106,-3.4112,-3.4119,-3.421,-3.4131,-3.4135,-3.4138,-3.4333,-3.4337,-3.434,0,0,0,0,0,0,-3.3952,-3.3964,-3.4061,-3.4015,-3.4026,-3.4034,-3.4063,-3.4063,-3.408,-3.4091,-3.4092,-3.4074,-3.4104,-3.4113,-3.4173,-3.4211,-3.4137,-3.4141,-3.433,-3.4334,-3.4338,-3.4393,0,0,0,0,0,0,-3.3948,-3.3963,-3.3993,-3.4016,-3.4029,-3.4115,-3.4066,-3.4066,-3.4088,-3.4083,-3.4106,-3.4107,-3.4103,-3.4166,-3.4177,-3.4216,-3.4145,-3.4327,-3.4332,-3.4337,-3.4388,-3.4399,-3.4408,0,0,0,0,0,-3.3944,-3.4006,-3.3995,-3.4007,-3.4066,-3.4117,-3.4125,-3.4119,-3.4091,-3.4121,-3.4128,-3.4107,-3.4206,-3.4173,-3.4184,-3.4225,-3.4324,-3.4331,-3.4336,-3.4383,-3.4397,-3.4408,0,0,0,0,0,0,-3.3986,-3.4008,-3.3997,-3.4068,-3.4091,-3.4111,-3.4148,-3.4133,-3.4164,-3.4158,-3.4149,-3.4155,-3.4218,-3.4227,-3.4191,-3.4301,-3.426,-3.4269,-3.4292,-3.4305,-3.4314,-3.431,-3.4148,0,0,0,0,0,-3.4004,-3.4044,-3.4061,-3.4123,-3.4135,-3.414,-3.4162,-3.4156,-3.4179,-3.4188,-3.42,-3.4222,-3.4258,-3.4282,-3.4316,-3.439,-3.4394,-3.4423,-3.4433,-3.4441,-3.4449,-3.4488,-3.4502,-3.436,-3.436,-3.436,0,0,-3.4041,-3.4058,-3.4084,-3.4132,-3.4149,-3.419,-3.4148,-3.4193,-3.4223,-3.4195,-3.4252,-3.4262,-3.4286,-3.4353,-3.4383,-3.4363,-3.4489,-3.4449,-3.4456,-3.4459,-3.4496,-3.4509,-3.4521,-3.4364,-3.4363,-3.4363,0,0,-3.4129,-3.4146,-3.4199,-3.4218,-3.4245,-3.4248,-3.4261,-3.4284,-3.4289,-3.4347,-3.4326,-3.4362,-3.4424,-3.4442,-3.446,-3.4556,-3.4538,-3.4567,-3.4619,-3.4658,-3.4669,-3.4679,-3.4712,-3.4725,-3.4575,-3.4575,-3.4575,0,-3.417,-3.4233,-3.4228,-3.4275,-3.4297,-3.4274,-3.4328,-3.4345,-3.4382,-3.4397,-3.4374,-3.4453,-3.4467,-3.4539,-3.4562,-3.4577,-3.4591,-3.4564,-3.4668,-3.4678,-3.4687,-3.4719,-3.4732,-3.4579,-3.4578,-3.4578,-3.4577,0,-3.4283,-3.4326,-3.4366,-3.4403,-3.4429,-3.4479,-3.4481,-3.4508,-3.45,-3.4505,-3.4564,-3.4582,-3.4619,-3.4635,-3.4628,-3.4706,-3.4692,-3.4669,-3.4628,-3.4704,-3.4734,-3.4746,-3.4583,-3.4582,-3.4581,-3.458,0,0,-3.4397,-3.4433,-3.4447,-3.4464,-3.4493,-3.4526,-3.4575,-3.4613,-3.4636,-3.4662,-3.4702,-3.4756,-3.4735,-3.4755,-3.475,-3.4784,-3.4859,-3.4756,-3.4757,-3.4774,-3.4945,-3.4961,-3.4976,-3.4847,-3.4849,-3.4851,-3.4943,0,-3.4486,-3.4573,-3.4571,-3.4651,-3.4691,-3.4671,-3.4713,-3.4735,-3.4741,-3.4775,-3.4782,-3.482,-3.479,-3.4802,-3.4835,-3.4842,-3.4893,-3.4836,-3.4883,-3.4885,-3.4877,-3.4992,-3.5009,-3.5094,-3.4954,-3.4956,-3.4958,0,-3.4601,-3.4633,-3.4718,-3.4742,-3.4758,-3.4797,-3.4831,-3.4865,-3.4889,-3.4891,-3.4915,-3.4904,-3.4952,-3.4911,-3.4978,-3.4939,-3.4958,-3.4965,-3.4968,-3.4971,-3.4925,-3.4997,-3.5121,-3.5134,-3.4976,-3.4975,-3.4973,0,-3.4676,-3.474,-3.4799,-3.4814,-3.4843,-3.4871,-3.4884,-3.4906,-3.4929,-3.4959,-3.4974,-3.5009,-3.5028,-3.5054,-3.5053,-3.5023,-3.512,-3.5079,-3.5123,-3.5123,-3.5143,-3.5141,-3.5271,-3.5157,-3.5157,-3.5157,-3.5156,0,-3.4775,-3.4827,-3.4832,-3.4868,-3.4926,-3.4923,-3.498,-3.4991,-3.5011,-3.5048,-3.5033,-3.5068,-3.5064,-3.5099,-3.5098,-3.5153,-3.5162,-3.5164,-3.5163,-3.5165,-3.5165,-3.5177,-3.517,-3.516,-3.5159,-3.5159,-3.5158,0,-3.4867,-3.4873,-3.4935,-3.4959,-3.4966,-3.5008,-3.5027,-3.5061,-3.5067,-3.5114,-3.5125,-3.5134,-3.5174,-3.5176,-3.5222,-3.5221,-3.5288,-3.5281,-3.528,-3.5278,-3.5322,-3.5317,-3.5463,-3.5481,-3.5356,-3.5357,-3.5358,0,-3.4929,-3.4969,-3.4998,-3.5022,-3.5038,-3.5077,-3.5101,-3.51,-3.5125,-3.5157,-3.5186,-3.5226,-3.5257,-3.5323,-3.5332,-3.5367,-3.536,-3.5409,-3.5365,-3.5366,-3.536,-3.5357,-3.5361,-3.5417,-3.5418,-3.5419,-3.542,0,-3.5039,-3.504,-3.5076,-3.5113,-3.5142,-3.5171,-3.5198,-3.5219,-3.522,-3.5249,-3.5292,-3.5316,-3.5364,-3.5403,-3.5438,-3.545,-3.5435,-3.5435,-3.5446,-3.5448,-3.5446,-3.5447,-3.5302,-3.5431,-3.543,-3.5429,-3.5428,-3.5428,-3.5117,-3.5152,-3.5178,-3.5218,-3.5239,-3.5264,-3.5297,-3.5308,-3.5344,-3.5384,-3.5381,-3.5427,-3.5451,-3.5496,-3.5512,-3.5547,-3.553,-3.5547,-3.5552,-3.5556,-3.556,-3.5441,-3.5553,-3.5553,-3.5553,-3.5553,-3.5552,0,-3.5225,-3.5241,-3.5279,-3.5317,-3.5349,-3.5335,-3.5364,-3.5391,-3.5433,-3.5457,-3.5489,-3.5537,-3.5575,-3.5589,-3.5625,-3.5651,-3.5645,-3.5661,-3.5658,-3.5661,-3.5573,-3.5559,-3.5665,-3.5665,-3.5665,-3.5665,-3.5665,-3.5665,-3.5285,-3.5343,-3.5348,-3.5416,-3.5431,-3.5478,-3.5495,-3.5519,-3.5538,-3.5594,-3.5626,-3.5635,-3.5655,-3.5693,-3.5727,-3.573,-3.5743,-3.5762,-3.5762,-3.5679,-3.5667,-3.5657,-3.5643,-3.5765,-3.5765,-3.5846,-3.5847,-3.5848]}]]